{"data":{"norad_id":64375,"epoch":"2026-09-20T22:17:48.872832Z","epoch_age_seconds":97078,"freshness":"FRESH","line1":"1 64375U 25127F   26263.92903788  .00147540  00000+0  11315-2 0  9990","line2":"2 64375  42.9990 348.1303 0000680 311.2254  48.8555 15.70872737 74209","mean_motion":15.70872737,"eccentricity":6.8e-5,"inclination_deg":42.999,"raan_deg":348.1303,"arg_perigee_deg":311.2254,"mean_anomaly_deg":48.8555,"bstar":0.0011315,"rev_number":7420,"period_min":91.668788061728,"perigee_km":355.94354610307,"apogee_km":356.85944333835,"semimajor_km":6734.5384947207,"source":"CELESTRAK","updated_at":"2026-09-21T09:00:35.322617Z"}}